Temp
22 20 19 18 20 20 27 28 29 28 25 24 25 24 22 22 23 19 20 21 22 21 20 20 20 20 19 19 19 19 19 20 19 19 19 19 19 18 18 19 18 19 18 18 18 18 18 18 18
23 20 19 20 20 25 26 29 28 26 25 25 24 24 24 23 23 21 21 22 22 21 20 20 20 20 20 19 19 19 19 19 19 19 19 19 19 19 19 18 18 18 18 18 18 18 18 18 19
20 20 21 20 25 26 27 29 30 29 27 26 25 26 25 25 24 22 22 22 23 22 21 20 20 20 20 19 19 19 19 19 19 19 19 19 19 18 18 18 19 18 18 18 18 18 18 18 18
24 23 23 23 28 29 29 30 30 29 28 27 26 25 25 25 23 23 22 21 21 21 21 21 20 20 20 19 19 19 19 19 19 19 19 19 19 18 18 19 19 18 18 18 18 17 18 18 18
25 22 23 24 28 31 31 31 30 29 28 27 25 25 24 24 23 23 22 22 22 22 21 21 21 20 20 19 19 19 19 20 19 19 19 19 19 18 18 18 19 19 18 18 18 18 17 18 18
21 18 23 23 27 32 32 32 31 30 28 26 25 24 24 24 24 23 23 22 22 22 22 22 21 20 20 20 20 19 19 19 19 19 19 19 19 19 18 18 18 18 18 19 18 18 18 18 18
21 19 23 25 27 32 32 32 30 30 29 27 25 24 24 24 24 23 23 23 23 22 22 22 21 20 20 20 20 20 19 19 19 19 19 19 19 19 18 18 19 19 18 19 19 18 18 18 19
27 25 26 27 27 29 32 31 31 31 30 27 26 25 24 24 24 23 23 22 22 21 22 22 21 21 20 20 19 19 19 19 19 19 19 19 18 19 19 18 18 18 18 18 18 18 18 18 18
29 24 25 29 27 31 32 31 31 31 29 28 27 25 24 24 24 23 23 22 22 22 22 22 22 21 21 20 20 20 20 19 19 19 19 19 19 19 19 19 18 18 19 18 18 18 18 18 18
28 23 27 30 29 28 32 28 28 30 29 27 26 25 25 24 24 24 23 23 22 22 21 22 21 21 21 20 19 20 20 20 19 19 19 18 18 18 18 18 18 18 18 18 18 18 18 18 18
29 25 29 30 32 31 27 25 26 27 27 27 26 25 25 25 24 24 24 23 22 22 22 21 21 21 20 20 19 19 19 19 19 18 19 18 18 18 17 17 18 18 18 19 19 18 18 18 18
30 31 30 32 32 32 27 25 25 28 29 28 26 26 25 25 24 24 24 24 23 22 22 21 21 20 20 19 20 20 19 18 18 18 18 18 18 18 18 18 18 18 19 18 19 18 17 18 18
29 31 33 33 34 29 30 26 26 26 29 28 26 26 25 25 25 25 25 24 23 23 22 22 21 20 19 20 20 21 19 19 18 19 18 18 18 18 18 18 18 19 19 18 18 18 17 17 18
32 33 35 36 35 29 27 26 30 31 29 28 27 26 26 26 25 25 25 24 24 23 23 22 22 20 20 19 20 20 20 19 18 18 19 19 18 18 18 18 19 19 19 18 18 18 18 18 18
34 33 33 35 34 28 29 26 28 32 30 29 28 27 27 26 26 25 25 25 24 23 23 22 22 21 22 21 19 19 18 18 17 17 17 18 18 18 19 19 19 18 19 18 18 18 17 18 17
32 30 30 32 33 30 30 25 26 29 30 30 28 28 28 27 26 26 25 25 24 23 23 22 21 21 21 20 20 19 18 18 17 17 17 17 17 18 19 18 18 18 18 18 18 19 19 18 18
28 26 27 29 31 32 31 27 28 27 28 29 29 27 28 27 27 26 25 25 24 23 23 22 21 21 20 21 20 18 17 17 17 17 17 17 18 18 18 18 18 17 17 18 18 19 18 18 18
27 26 28 28 30 30 30 28 28 28 27 29 29 26 28 28 27 26 25 25 24 23 23 22 22 21 21 21 20 19 19 18 17 17 17 17 17 17 18 18 18 18 18 18 18 18 17 18 18
29 29 29 29 31 30 30 29 29 28 27 26 23 27 28 27 27 26 26 25 24 23 23 22 22 21 21 20 21 21 20 19 18 17 18 18 18 18 18 18 18 17 18 18 18 18 18 18 18
30 29 29 30 31 30 29 29 31 27 26 25 26 27 29 28 27 26 26 25 24 24 23 22 22 21 20 20 20 20 20 20 19 18 17 18 18 18 18 18 17 17 18 18 17 17 17 17 17
31 28 29 29 31 31 28 30 29 27 28 27 26 30 30 28 27 27 26 25 25 24 23 22 22 22 21 20 20 20 21 20 19 19 18 18 19 18 18 18 18 18 17 17 17 17 17 17 18
30 32 32 32 28 27 30 26 26 26 27 27 26 26 29 28 27 27 26 25 25 24 23 23 23 22 21 20 20 20 20 20 19 19 18 18 18 18 18 17 17 17 17 17 17 17 17 17 17
30 32 31 32 29 31 29 26 27 24 26 28 28 30 27 28 28 27 26 26 25 24 24 23 23 22 21 20 20 20 19 18 18 18 18 18 18 17 17 17 17 17 17 17 17 17 17 16 17
32 31 30 30 27 24 27 27 25 24 25 27 26 30 30 28 27 27 26 26 25 24 23 23 23 21 20 21 19 19 18 18 18 18 18 18 17 17 17 17 17 17 17 17 17 16 16 17 17
31 29 23 24 23 23 25 26 25 28 28 29 29 30 30 28 27 26 26 26 25 24 23 23 23 21 19 19 19 19 18 18 18 18 17 17 17 16 16 17 17 17 17 16 16 16 16 16 16
27 26 22 25 24 25 28 28 28 32 32 33 33 33 31 26 24 22 23 25 25 23 23 22 23 20 19 18 19 18 18 18 18 18 17 17 17 17 17 16 15 15 17 16 16 15 15 16 16
28 27 27 26 27 25 24 26 28 25 22 29 33 32 31 26 28 27 23 25 24 24 22 21 22 20 18 18 18 17 18 18 17 16 17 16 17 17 16 15 14 15 15 16 15 14 15 15 15
29 29 27 23 25 25 26 26 24 23 23 26 23 30 31 29 26 25 26 25 24 24 22 22 21 20 18 18 17 17 18 18 16 15 16 16 16 16 15 14 14 14 14 14 14 14 15 15 15
28 27 28 25 24 23 22 22 22 21 20 21 23 23 30 30 28 27 26 25 25 23 22 22 21 21 19 18 17 17 17 18 15 15 15 16 15 14 14 14 14 14 14 16 14 14 14 14 15
30 29 26 22 24 23 22 22 24 20 20 23 24 20 30 30 29 28 27 25 24 23 22 22 22 22 20 18 17 17 17 17 15 15 15 15 14 14 14 14 15 15 14 15 15 15 15 15 15
Height
1520 1522 1522 1525 1529 1521 1510 1506 1493 1497 1505 1505 1503 1509 1516 1517 1520 1539 1535 1537 1539 1541 1543 1545 1546 1547 1548 1549 1550 1551 1552 1553 1555 1556 1558 1559 1560 1560 1561 1561 1561 1562 1564 1563 1564 1565 1565 1566 1568
1521 1523 1524 1521 1530 1522 1518 1498 1501 1504 1507 1506 1508 1511 1514 1520 1523 1531 1535 1538 1539 1542 1544 1545 1547 1547 1548 1550 1550 1552 1553 1554 1555 1556 1558 1560 1560 1561 1561 1561 1562 1563 1564 1564 1565 1566 1566 1567 1569
1524 1526 1531 1522 1511 1522 1518 1500 1498 1502 1505 1508 1511 1514 1518 1523 1527 1531 1534 1538 1540 1543 1545 1546 1547 1548 1549 1550 1551 1552 1553 1555 1556 1557 1557 1559 1560 1560 1561 1562 1564 1564 1565 1566 1567 1567 1568 1569 1570
1531 1528 1525 1527 1510 1499 1500 1500 1502 1505 1509 1510 1512 1519 1524 1526 1527 1532 1536 1538 1540 1543 1545 1545 1546 1548 1549 1550 1552 1554 1555 1555 1557 1558 1558 1559 1560 1560 1562 1564 1565 1565 1567 1567 1568 1569 1569 1570 1571
1527 1530 1529 1527 1509 1496 1493 1496 1500 1505 1510 1514 1517 1523 1526 1530 1532 1534 1537 1537 1541 1544 1545 1546 1546 1548 1550 1552 1554 1555 1556 1556 1557 1557 1559 1560 1561 1562 1563 1564 1566 1567 1567 1568 1569 1570 1570 1571 1572
1529 1536 1537 1541 1515 1493 1493 1496 1500 1505 1511 1518 1521 1525 1531 1534 1535 1536 1536 1539 1542 1543 1545 1547 1548 1550 1552 1553 1554 1555 1557 1558 1559 1559 1560 1561 1562 1564 1564 1566 1566 1567 1567 1568 1569 1570 1570 1571 1572
1529 1537 1537 1526 1521 1499 1498 1499 1504 1507 1509 1514 1520 1526 1533 1535 1537 1536 1538 1540 1542 1543 1545 1548 1550 1552 1553 1553 1554 1555 1557 1559 1560 1561 1562 1563 1563 1564 1565 1565 1566 1566 1567 1568 1569 1569 1570 1571 1573
1522 1526 1529 1519 1523 1511 1499 1503 1507 1508 1508 1513 1512 1526 1531 1534 1536 1538 1539 1538 1541 1544 1547 1550 1551 1552 1553 1555 1556 1557 1559 1558 1559 1560 1561 1563 1563 1564 1564 1564 1566 1568 1567 1567 1568 1569 1569 1570 1572
1518 1529 1533 1518 1520 1503 1498 1504 1508 1510 1512 1515 1514 1518 1528 1534 1537 1537 1539 1539 1541 1544 1547 1549 1551 1552 1553 1554 1556 1557 1557 1559 1559 1560 1561 1562 1562 1563 1563 1564 1565 1567 1569 1569 1570 1570 1571 1571 1572
1510 1528 1521 1506 1514 1509 1507 1518 1522 1512 1517 1521 1522 1527 1531 1536 1538 1538 1539 1540 1541 1543 1546 1548 1550 1551 1551 1552 1555 1555 1556 1558 1559 1560 1561 1561 1562 1563 1565 1565 1565 1565 1568 1570 1571 1571 1573 1572 1572
1507 1517 1504 1505 1508 1506 1508 1517 1529 1521 1518 1520 1523 1528 1531 1536 1539 1539 1539 1540 1539 1543 1547 1549 1550 1551 1551 1551 1553 1554 1556 1556 1558 1559 1561 1561 1562 1562 1564 1564 1564 1564 1566 1569 1571 1571 1573 1573 1572
1514 1502 1499 1495 1502 1508 1517 1529 1521 1522 1514 1515 1521 1526 1530 1534 1536 1538 1537 1539 1541 1543 1546 1548 1549 1551 1551 1553 1552 1551 1552 1554 1556 1556 1557 1558 1558 1561 1562 1562 1563 1565 1565 1568 1570 1571 1572 1573 1571
1511 1499 1494 1493 1496 1506 1506 1512 1531 1523 1518 1521 1523 1526 1528 1531 1535 1535 1536 1538 1541 1543 1545 1548 1550 1550 1551 1551 1552 1550 1552 1552 1554 1554 1553 1555 1555 1559 1561 1561 1563 1566 1566 1566 1565 1568 1568 1569 1571
1496 1496 1486 1487 1491 1500 1505 1513 1506 1515 1521 1527 1529 1531 1530 1532 1535 1537 1537 1537 1539 1542 1544 1547 1548 1549 1550 1549 1550 1551 1551 1551 1549 1551 1551 1552 1553 1557 1561 1561 1564 1565 1565 1564 1561 1563 1566 1565 1567
1492 1493 1487 1486 1489 1505 1498 1514 1506 1505 1514 1522 1529 1530 1531 1532 1536 1536 1537 1537 1537 1541 1542 1545 1547 1548 1548 1550 1550 1547 1546 1546 1545 1547 1548 1551 1551 1555 1557 1559 1562 1563 1562 1562 1562 1560 1562 1564 1564
1493 1493 1507 1490 1487 1497 1499 1524 1504 1506 1509 1512 1521 1524 1527 1529 1533 1535 1535 1537 1538 1539 1540 1542 1544 1545 1545 1546 1546 1544 1541 1540 1540 1541 1545 1549 1551 1552 1556 1557 1557 1560 1560 1560 1559 1559 1559 1561 1562
1501 1523 1516 1504 1489 1491 1495 1512 1499 1504 1503 1506 1514 1521 1524 1526 1529 1532 1534 1536 1537 1537 1538 1540 1541 1542 1543 1542 1543 1541 1537 1535 1537 1540 1544 1546 1547 1548 1552 1554 1554 1553 1555 1556 1555 1556 1556 1557 1560
1520 1523 1516 1511 1494 1493 1496 1497 1500 1495 1499 1496 1507 1519 1522 1526 1528 1528 1530 1533 1535 1535 1536 1538 1540 1542 1541 1541 1542 1540 1539 1539 1539 1541 1542 1542 1542 1544 1548 1549 1550 1551 1553 1553 1552 1552 1553 1557 1557
1502 1506 1514 1509 1485 1499 1495 1492 1487 1492 1497 1500 1517 1519 1522 1527 1523 1524 1526 1529 1531 1531 1533 1535 1538 1539 1540 1540 1540 1539 1538 1538 1541 1540 1540 1541 1543 1546 1547 1547 1549 1549 1550 1549 1548 1548 1550 1553 1555
1500 1509 1516 1504 1493 1500 1492 1490 1477 1491 1505 1516 1511 1504 1501 1514 1518 1520 1524 1526 1527 1528 1529 1532 1536 1540 1539 1538 1538 1538 1538 1538 1539 1540 1540 1540 1541 1544 1546 1545 1547 1548 1547 1548 1549 1549 1550 1551 1552
1494 1507 1505 1503 1494 1491 1494 1494 1493 1496 1481 1490 1498 1493 1494 1501 1510 1513 1518 1521 1523 1524 1526 1530 1534 1535 1536 1536 1537 1538 1538 1539 1540 1541 1540 1539 1540 1541 1544 1545 1545 1545 1545 1546 1546 1548 1548 1549 1550
1500 1482 1483 1487 1506 1523 1483 1531 1501 1493 1490 1490 1493 1492 1488 1494 1505 1511 1517 1522 1521 1521 1524 1528 1531 1533 1535 1534 1536 1538 1538 1539 1540 1542 1543 1542 1542 1541 1541 1542 1542 1542 1543 1543 1543 1545 1545 1545 1544
1489 1477 1482 1480 1492 1488 1493 1517 1506 1496 1495 1483 1481 1485 1490 1492 1501 1509 1513 1517 1520 1522 1521 1526 1529 1530 1532 1534 1534 1536 1538 1540 1540 1542 1543 1544 1542 1541 1540 1540 1540 1538 1537 1538 1539 1540 1541 1541 1540
1475 1480 1483 1483 1498 1530 1506 1513 1515 1503 1488 1480 1479 1479 1482 1493 1501 1507 1511 1514 1516 1520 1522 1525 1528 1530 1532 1533 1535 1535 1537 1538 1540 1541 1542 1543 1543 1541 1540 1539 1537 1535 1535 1535 1536 1537 1537 1537 1537
1477 1492 1534 1536 1539 1544 1503 1507 1503 1478 1477 1475 1478 1476 1484 1494 1504 1511 1511 1513 1514 1518 1522 1526 1528 1528 1532 1533 1533 1535 1536 1536 1538 1540 1541 1541 1541 1542 1541 1539 1537 1535 1535 1535 1535 1535 1535 1535 1535
1487 1495 1532 1543 1544 1530 1494 1512 1496 1474 1478 1476 1476 1478 1487 1499 1502 1513 1514 1513 1515 1519 1522 1524 1528 1529 1531 1532 1532 1534 1536 1537 1535 1536 1538 1543 1542 1541 1540 1539 1538 1536 1536 1535 1534 1535 1535 1534 1533
1485 1496 1481 1507 1500 1523 1513 1498 1486 1480 1489 1482 1478 1479 1486 1491 1495 1499 1512 1515 1517 1520 1521 1522 1525 1527 1531 1534 1533 1533 1535 1534 1534 1537 1537 1542 1542 1541 1539 1539 1539 1537 1536 1535 1535 1535 1534 1533 1533
1472 1471 1502 1509 1531 1537 1515 1510 1508 1496 1492 1481 1488 1482 1485 1492 1498 1504 1508 1511 1515 1517 1517 1517 1524 1527 1530 1531 1531 1533 1535 1534 1531 1535 1539 1543 1542 1540 1539 1538 1538 1537 1536 1535 1535 1535 1535 1534 1533
1477 1485 1482 1492 1505 1531 1539 1522 1486 1489 1485 1482 1497 1497 1485 1492 1499 1502 1504 1507 1511 1512 1515 1522 1527 1528 1528 1530 1531 1533 1534 1535 1533 1536 1540 1542 1542 1541 1540 1539 1539 1539 1537 1535 1535 1536 1535 1535 1534
1460 1471 1479 1513 1515 1509 1517 1511 1477 1499 1497 1497 1489 1506 1489 1490 1497 1498 1502 1499 1507 1515 1517 1519 1523 1525 1528 1530 1532 1530 1532 1535 1537 1540 1541 1542 1542 1542 1542 1541 1541 1540 1540 1537 1537 1537 1536 1535 1533
Wind_Speed
3 7 5 5 3 2 8 11 7 15 9 20 18 9 8 9 2 6 25 22 24 23 21 19 17 17 17 16 15 14 14 14 12 11 12 11 10 10 11 11 11 9 9 10 9 9 9 9 10
4 6 2 6 2 7 4 12 13 19 21 28 24 22 13 8 24 34 26 15 22 22 20 19 18 17 16 15 13 13 13 12 12 10 9 11 9 10 10 12 14 13 8 9 9 8 8 8 11
7 1 10 3 3 6 9 12 14 24 31 23 9 20 10 24 24 24 21 15 20 20 18 18 17 16 15 14 13 12 12 11 11 9 8 7 7 7 9 8 6 6 8 7 6 7 7 9 12
19 7 7 3 5 8 15 14 21 24 28 23 24 13 23 25 29 27 22 22 21 18 16 16 16 15 14 13 11 11 11 11 10 9 8 7 7 4 4 6 5 5 5 6 6 5 7 8 11
28 12 3 5 5 12 11 23 25 14 25 26 28 19 23 24 25 27 30 23 20 16 16 14 14 14 13 12 11 10 10 9 9 8 7 6 6 6 3 3 5 6 5 4 4 3 5 7 9
12 2 4 4 4 13 12 25 21 21 30 28 28 26 23 25 23 20 21 23 14 8 9 11 12 11 11 10 10 10 9 8 6 6 6 6 5 4 3 2 1 3 4 4 3 3 4 5 7
10 5 4 9 12 12 16 30 17 15 21 17 30 14 21 23 20 20 19 14 11 9 11 9 10 9 9 8 8 8 8 7 6 5 5 5 5 4 2 2 1 1 2 3 3 3 3 5 5
11 4 4 1 5 6 21 26 19 15 12 32 27 8 20 26 20 18 18 13 11 9 7 7 7 7 7 7 6 5 5 6 6 5 5 4 4 3 3 2 2 2 2 2 3 4 5 6 6
6 3 3 3 8 2 26 14 22 22 26 23 15 31 31 27 23 21 21 17 13 6 4 6 5 3 5 6 4 1 3 5 5 4 4 3 4 5 1 0 1 3 5 4 3 3 4 5 7
6 4 5 4 9 3 15 28 15 20 21 26 30 29 27 25 24 22 16 15 17 12 8 4 4 5 4 2 5 1 3 1 0 1 2 0 4 3 3 7 3 2 6 6 6 5 5 5 6
2 6 8 19 16 24 32 35 18 5 11 23 26 26 27 21 24 18 18 18 14 10 9 5 4 5 4 5 6 2 3 3 4 2 2 2 3 4 6 4 5 3 2 4 7 6 8 6 6
6 24 27 14 20 12 33 13 12 15 20 27 27 28 26 22 22 16 20 15 17 14 10 7 3 4 2 4 6 4 10 11 9 13 9 8 7 11 12 11 10 5 4 4 4 10 14 8 6
11 27 33 30 21 28 28 37 5 14 18 23 25 26 24 22 21 16 17 14 17 15 11 5 5 5 5 8 8 9 12 15 17 16 16 19 12 14 10 9 8 10 9 11 10 15 12 16 14
25 26 13 17 16 29 24 10 22 3 13 16 21 21 21 21 21 17 17 15 19 17 13 10 8 9 12 11 8 11 12 13 14 17 15 12 17 11 15 12 12 13 13 12 11 14 22 11 14
24 10 8 4 13 9 31 3 14 20 12 5 13 18 21 20 20 18 18 16 14 14 13 12 15 11 10 11 11 14 14 16 19 19 11 16 13 14 11 11 11 14 14 12 13 20 22 19 15
15 5 2 6 3 15 10 7 14 22 20 12 7 22 25 22 21 17 17 15 14 15 12 12 12 12 9 11 11 14 16 16 15 15 18 16 14 11 13 9 10 12 12 13 14 17 18 20 16
8 5 11 11 23 14 4 5 21 24 19 17 22 20 26 25 23 19 17 14 16 14 14 15 15 12 10 10 11 15 16 11 6 5 11 17 21 23 16 11 11 8 10 10 10 8 14 13 17
4 6 13 18 16 17 11 10 10 30 31 27 24 20 27 25 25 22 19 16 17 16 15 14 15 13 13 10 9 12 8 6 6 5 1 3 5 14 13 9 4 7 7 7 3 7 12 17 15
8 10 11 7 17 6 15 14 15 24 24 19 12 19 20 25 26 25 21 20 19 16 17 15 12 12 8 8 5 7 9 6 7 7 6 5 5 5 5 4 5 6 7 2 1 7 5 9 11
7 8 9 13 23 4 15 17 10 17 14 14 27 39 34 28 31 28 25 24 23 19 16 15 10 8 7 9 5 4 5 4 6 6 7 7 5 2 2 5 4 5 5 4 4 7 10 12 14
6 15 9 18 8 18 7 8 8 1 25 32 44 45 22 39 37 34 32 28 23 21 18 15 10 8 8 12 6 5 5 1 2 4 5 5 6 6 3 3 5 6 6 7 9 11 12 13 12
5 7 10 11 15 9 6 4 4 7 4 15 28 26 31 41 40 38 34 29 24 20 16 13 9 10 10 10 7 5 7 4 0 4 3 3 3 3 5 9 10 11 9 10 11 11 15 17 19
5 10 8 6 11 2 5 4 2 4 5 6 6 13 36 38 44 40 35 28 23 20 18 12 9 10 11 7 8 4 6 2 3 2 3 1 5 2 4 8 9 8 11 9 8 7 6 7 10
8 8 7 5 2 4 6 2 4 6 9 5 14 23 39 41 43 38 30 24 22 21 19 12 10 9 7 8 9 5 7 4 5 3 5 3 2 4 6 10 14 11 7 5 4 4 5 4 5
5 2 3 3 4 5 6 7 7 3 5 7 11 24 32 37 38 27 24 25 24 23 20 11 8 7 8 5 9 7 7 5 3 2 2 5 2 3 6 12 10 7 7 6 5 3 4 5 5
9 8 6 6 3 4 8 3 3 2 7 8 14 20 30 37 38 20 28 28 25 20 13 8 4 4 7 4 4 8 6 7 8 9 5 8 6 7 9 4 6 7 6 6 6 7 7 6 3
10 4 10 2 3 2 4 6 3 17 14 9 6 17 28 46 32 23 30 27 22 15 12 7 5 3 3 1 4 8 7 10 8 5 7 8 11 8 3 4 5 8 9 9 11 13 11 9 8
8 5 2 3 3 5 1 0 4 4 4 11 22 13 22 31 37 37 30 24 16 12 12 10 5 3 7 5 7 7 4 18 9 7 7 8 6 3 3 7 8 9 8 9 9 9 8 6 6
2 5 3 3 4 5 3 6 7 10 8 15 12 28 18 23 30 26 23 20 15 17 12 6 7 5 4 6 4 6 8 5 12 8 4 3 4 6 9 8 9 8 10 10 8 8 6 5 5
8 6 7 5 9 2 5 6 9 8 14 12 23 45 13 12 12 14 17 22 22 17 13 9 5 1 3 5 5 7 5 9 12 6 2 2 8 7 8 7 5 8 11 14 15 11 10 8 7
Wind_Direction
123 105 137 221 276 208 77 68 35 77 62 76 84 110 121 102 122 152 136 148 146 143 142 140 135 133 133 132 128 129 132 137 135 134 124 119 119 112 101 91 101 104 108 105 104 109 113 113 109
105 102 135 271 219 74 51 87 67 103 108 89 85 91 84 88 110 129 128 133 140 142 142 140 138 135 134 133 133 134 138 139 139 140 133 128 131 128 118 106 97 88 102 108 116 107 114 115 113
106 259 293 229 286 91 78 64 86 90 93 89 98 81 75 116 124 135 131 131 141 132 141 139 139 137 136 135 137 140 143 144 146 147 146 133 135 135 128 128 123 103 89 100 111 113 116 119 116
26 345 248 315 117 94 102 92 73 89 82 106 101 72 93 115 118 131 129 121 134 118 138 139 140 139 138 139 140 143 146 152 155 156 159 156 150 150 137 126 107 111 120 111 98 131 116 123 122
20 329 329 286 288 110 115 115 110 104 105 102 94 100 101 119 125 136 148 147 142 128 133 140 140 140 140 141 144 145 147 154 157 157 166 173 172 167 163 129 116 128 140 142 127 108 131 127 129
113 268 340 307 238 107 104 100 105 115 111 111 100 105 116 129 134 137 142 156 151 138 127 144 140 140 140 141 150 153 156 158 160 161 169 182 172 177 173 149 135 129 147 145 164 151 155 157 144
136 150 253 265 359 79 99 93 86 92 124 120 132 121 137 143 144 148 144 146 140 121 133 146 141 144 147 149 157 161 160 163 165 176 179 186 182 180 202 251 264 203 182 146 181 160 184 181 172
150 160 245 123 280 9 97 101 110 116 96 137 124 145 154 149 144 144 149 145 135 139 124 135 138 154 160 157 162 165 176 178 179 189 186 185 193 192 211 222 303 318 294 226 211 183 206 207 200
142 76 267 174 218 184 109 113 105 95 79 86 114 145 148 148 149 146 139 145 151 165 113 90 67 159 174 160 139 140 223 217 201 204 191 185 192 171 211 206 100 340 334 299 265 243 218 237 216
88 130 255 110 355 309 94 52 14 116 100 93 102 128 141 150 158 154 158 163 171 173 163 119 68 79 26 194 134 8 227 280 60 354 203 93 175 254 301 258 276 13 330 314 298 278 242 242 234
175 219 215 237 221 236 93 106 285 226 128 138 136 140 149 156 163 166 173 171 177 186 176 145 117 94 135 172 201 209 160 219 199 258 177 179 177 278 224 234 244 266 326 294 282 275 274 238 220
319 272 258 254 223 130 69 94 237 251 152 151 148 151 156 165 170 176 181 174 173 188 172 142 117 155 182 217 235 211 244 239 269 232 219 204 229 261 235 239 240 267 269 267 277 316 289 242 197
217 250 257 242 171 107 105 73 326 4 116 142 149 157 161 168 179 178 181 172 168 183 188 174 178 199 208 236 217 230 252 240 247 224 228 227 238 248 247 238 243 275 273 259 263 266 265 242 223
219 241 291 164 151 118 112 156 167 155 89 133 153 165 169 173 183 176 176 172 181 183 201 211 237 221 227 249 270 252 265 245 244 248 239 218 214 238 233 247 255 258 271 268 283 275 272 253 223
312 239 307 289 142 113 117 86 161 192 143 156 179 178 183 176 185 181 183 183 196 199 201 212 219 240 254 238 246 272 280 265 256 258 224 203 208 224 230 242 252 262 267 267 271 308 263 241 223
296 68 5 304 321 165 73 230 229 207 183 190 238 192 185 177 183 178 184 188 193 188 203 216 231 258 265 265 293 303 296 287 271 246 224 210 217 232 249 253 283 262 267 265 269 286 225 238 232
2 56 10 335 324 310 153 197 229 208 200 191 218 246 177 174 176 176 182 187 194 204 208 215 237 254 265 273 315 329 321 298 250 227 227 237 243 249 251 253 286 284 275 306 265 240 237 252 255
98 74 354 311 288 306 293 238 193 197 203 199 206 241 168 176 174 177 185 191 204 206 213 229 244 249 259 272 318 344 13 57 137 130 170 249 214 217 237 253 301 301 282 301 289 274 253 253 250
155 104 230 265 260 313 269 265 183 184 192 203 65 130 167 191 183 186 186 191 200 211 219 233 244 245 253 254 291 345 11 71 88 103 83 65 115 176 223 281 310 314 304 215 253 293 208 254 251
172 137 225 241 256 251 276 278 197 160 185 178 177 169 202 203 187 184 184 192 198 209 222 235 244 251 254 233 260 297 333 46 85 51 51 63 79 84 360 355 330 290 304 310 319 296 270 266 262
244 159 187 244 235 286 268 297 86 44 135 179 186 193 204 186 190 184 183 189 196 207 219 232 254 249 242 222 232 243 226 159 74 53 28 25 15 5 24 314 287 302 299 288 243 255 267 266 253
254 258 218 240 154 209 165 248 66 153 238 170 194 200 184 182 189 185 182 185 197 206 212 232 247 253 245 224 223 204 199 193 288 354 10 348 11 345 313 318 309 303 288 284 282 280 276 276 278
259 289 294 311 314 262 308 89 238 128 251 239 259 260 201 187 179 182 182 186 194 203 210 222 248 254 238 214 216 204 170 173 302 295 58 57 29 355 319 334 324 313 310 292 286 282 271 279 283
258 269 310 331 352 359 295 209 222 184 210 256 223 251 173 166 173 181 181 183 183 201 207 204 247 249 227 243 218 195 175 209 250 320 14 34 44 258 318 339 339 322 328 340 299 307 318 314 307
274 16 333 349 323 215 300 15 254 226 222 186 176 138 150 155 163 160 179 180 179 193 197 204 242 252 227 234 213 189 184 223 259 321 335 301 155 208 302 325 326 336 5 13 21 355 308 315 328
240 170 163 210 204 264 343 271 193 63 108 87 144 154 152 133 125 112 216 175 176 180 201 199 259 239 209 218 195 181 232 242 205 201 178 282 274 285 314 348 8 19 13 29 31 41 21 30 21
269 180 222 203 285 100 232 333 159 30 14 356 168 155 147 149 168 177 190 168 172 192 197 197 241 357 180 102 190 214 239 249 276 235 182 272 274 284 354 60 50 42 36 49 59 55 49 49 40
185 214 298 335 259 286 49 296 218 52 358 38 2 107 119 137 156 164 164 167 180 182 198 180 221 323 172 204 209 239 255 338 295 184 160 252 273 275 97 76 54 47 43 59 68 69 53 34 40
258 265 267 143 142 181 181 245 196 194 120 90 240 289 114 122 140 153 159 167 178 181 168 176 167 308 203 201 220 265 285 11 110 134 182 260 148 96 85 78 67 34 35 41 62 78 74 57 51
192 215 186 131 281 130 166 270 148 72 46 145 215 286 125 131 167 158 177 165 170 169 173 199 179 314 220 222 241 283 186 126 126 169 210 146 114 112 108 104 85 67 55 51 55 52 50 55 80